Location: Franzen
(48.6167°N, 15.3833°E)
Time: 18:57:39
(UTC+00:00)

Transit 2A - Pass Details

Date: 11 August 2021
Orbit: 594 x 964 km, 66.7° (Epoch: 27 September)

Event Time Altitude Azimuth Distance (km) Brightness Sun altitude
Rises 08:12:42 0° 322° (NW) 3,130 8.8 41.7°
Reaches altitude 10° 08:16:22 10° 350° (N) 2,295 8.3 42.2°
Maximum altitude 08:18:50 13° 19° (NNE) 2,135 8.4 42.5°
Drops below altitude 10° 08:21:25 10° 47° (NE) 2,413 8.9 42.9°
Sets 08:25:28 0° 73° (ENE) 3,437 9.8 43.5°
